World > North America > United States > Alabama

Estillfork, Alabama Regional Weather

Lat: 34.91N, Lon: 86.17W
Wx Zone: ALZ009Web Search

Helpful Tip: Type the letters wx in the search engine next time you need to find us.

Feedback


°F Click to change Estillfork hourly weather to Imperial units.Click to change Estillfork hourly weather to Metric units. °C
Estillfork Weather Map
UTC Time: 4/12/2021, 16:56
Your Time:

Estillfork, AL Regional Weather

Expires:202104121700;;442857
ASUS44 KBMX 121610
RWRAL 
             
ALABAMA REGIONAL WEATHER ROUNDUP
NATIONAL WEATHER SERVICE BIRMINGHAM AL
1100 AM CDT MON APR 12 2021

NOTE: "FAIR" INDICATES FEW OR NO CLOUDS BELOW 12,000 FEET
WITH NO SIGNIFICANT WEATHER AND/OR OBSTRUCTIONS TO VISIBILITY.

THE REMARK "TC" DENOTES TEMPERATURE IN DEGREES CELSIUS.


ALZ001>011-014-016>018-020-121700-
NORTH ALABAMA
  
CITY           SKY/WX    TMP DP  RH WIND       PRES   REMARKS
MUSCLE SHOALS  SUNNY     72  50  45 NW9       29.90R                  
HUNTSVILLE     SUNNY     71  51  49 W9        29.90R                  
DECATUR        SUNNY     70  47  43 NW10      29.90R                  
HALEYVILLE     FAIR      72  48  42 W7        29.94R                  
GADSDEN        SUNNY     74  48  39 NW12G20   29.90S                  
$$
 

SKY/WX - Weather  TMP - Temperature  DP - Dew Point  RH - Relative Humidity
WIND - Wind Direction/Speed PRES - Barometric Pressure VSB - Visibility
WCI - Wind Chill Index E13G22 Wind - East Wind 13 mph/Gusts of 22 mph